User: anonymous
Location: Caltech
(34.1382°N, 118.1253°W)
Time: 22:21:44
(UTC-07:00)
Language:

Gbstr 26 Del rocket - Orbit

View from above orbital plane
View from above orbital plane
View from above satellite
View from above satellite

Ground track
Ground track

The orbit data is extracted from the following two-line orbital elements,

1 25876U 99041E   14292.18298259  .00001929  00000-0  37490-3 0  5019
2 25876 051.7632 188.6686 0540250 077.4109 078.5027 14.02355633778116
Epoch (UTC): 19 October 2014 04:23:29
Eccentricity: 0.0540250
inclination: 51.7632°
perigee height: 493 km
apogee height: 1278 km
right ascension of ascending node: 188.6686°
argument of perigee: 77.4109°
revolutions per day: 14.02355633
mean anomaly at epoch: 78.5027°
orbit number at epoch: 77811

The dashed part of the orbit path shows where the satellite is in the earth's shadow,  

DLR